User: anonymous   Login
Location: Fort Wayne
(41.1310°N, 85.1290°W)
Time: 23:21:31
(UTC-05:00)
Language:

SR - Orbit

View from above orbital plane
View from above orbital plane
View from above satellite
View from above satellite

Ground track
Ground track

The orbit data is extracted from the following two-line orbital elements,

1 00046U 60007B   17020.18929810 -.00000012  00000-0  20917-4 0  9998
2 00046  66.6896 167.8830 0214115 336.7502  22.4026 14.48985772958818
Epoch (UTC): 20 January 2017 04:32:35
Eccentricity: 0.0214115
inclination: 66.6896°
perigee height: 577 km
apogee height: 881 km
right ascension of ascending node: 167.8830°
argument of perigee: 336.7502°
revolutions per day: 14.48985772
mean anomaly at epoch: 22.4026°
orbit number at epoch: 95881

The dashed part of the orbit path shows where the satellite is in the earth's shadow,  

DLR